Weather History for Ft. Stewart, GA

Change the Weather History Date:

Wednesday, January 16, 2013

  Actual Average Record
Temperature  
Mean Temperature 68 °F -  
Max Temperature 81 °F 61 °F 81 °F (2013)
Min Temperature 55 °F 37 °F 23 °F (1978)
Cooling Degree Days 3    
Growing Degree Days 18 (Base 50)    
Moisture  
Dew Point 59 °F    
Average Humidity 94    
Maximum Humidity 100    
Minimum Humidity 46    
Precipitation  
Precipitation 0.00 in - - ()
Sea Level Pressure  
Sea Level Pressure 30.03 in    
Wind  
Wind Speed 0 mph (South)    
Max Wind Speed 12 mph    
Max Gust Speed 17 mph    
Visibility 4 miles    
Events Fog    
Averages and records for this station are not official NWS values.
T = Trace of Precipitation, MM = Missing Value Source: NWS Daily Summary

Daily Weather History Graph

Daily Weather History Graph

Search for Another Location

Airport:

Trip Planner

Search our weather history database for the weather conditions in past years. The results will help you decide how hot, cold, wet, or windy it might be!

Date:

Astronomy

Jan. 16, 2013 Rise Set
Actual Time 7:26 AM EST 5:45 PM EST
Civil Twilight 7:00 AM EST 6:12 PM EST
Nautical Twilight 6:30 AM EST 6:42 PM EST
Astronomical Twilight 6:00 AM EST 7:11 PM EST
Moon 10:24 AM EST (1/16) 11:11 PM EST (1/16)
Length of Visible Light 11h 12m
Length of Day
10h 19m
Waxing Crescent, 28% of the Moon is Illuminated
Jan 16
Waxing Crescent
Jan 18
First Quarter
Jan 26
Full
Feb 3
Last Quarter
Feb 10
New

Hourly Weather History & Observations

Time (EST) Temp. Heat Index Dew Point Humidity Pressure Visibility Wind Dir Wind Speed Gust Speed Precip Events Conditions
12:55 AM 63.9 °F - 63.9 °F 100% 30.05 in 10.0 mi Calm Calm - N/A   Clear
1:55 AM 63.0 °F - 63.0 °F 100% 30.04 in 10.0 mi Calm Calm - N/A   Clear
2:55 AM 62.1 °F - 62.1 °F 100% 30.04 in 10.0 mi Calm Calm - N/A   Clear
3:41 AM 60.8 °F - 60.8 °F 100% 30.03 in 8.0 mi Calm Calm - N/A   Clear
3:55 AM 60.1 °F - 60.1 °F 100% 30.03 in 2.5 mi Calm Calm - N/A   Clear
3:58 AM 59.0 °F - 59.0 °F 100% 30.03 in 1.8 mi Calm Calm - N/A   Clear
3:59 AM 59.0 °F - 59.0 °F 100% 30.03 in 1.5 mi Calm Calm - N/A   Clear
4:00 AM 59.0 °F - 59.0 °F 100% 30.03 in 1.2 mi Calm Calm - N/A   Clear
4:02 AM 59.0 °F - 59.0 °F 100% 30.03 in 1.0 mi Calm Calm - N/A   Clear
4:06 AM 59.0 °F - 59.0 °F 100% 30.03 in 1.0 mi Calm Calm - N/A   Clear
4:07 AM 59.0 °F - 59.0 °F 100% 30.03 in 1.0 mi Calm Calm - N/A   Clear
4:09 AM 59.0 °F - 59.0 °F 100% 30.03 in 1.2 mi Calm Calm - N/A   Clear
4:11 AM 59.0 °F - 59.0 °F 100% 30.03 in 1.5 mi Calm Calm - N/A   Clear
4:12 AM 59.0 °F - 59.0 °F 100% 30.03 in 1.8 mi Calm Calm - N/A   Clear
4:13 AM 59.0 °F - 59.0 °F 100% 30.03 in 2.0 mi Calm Calm - N/A   Clear
4:15 AM 59.0 °F - 59.0 °F 100% 30.03 in 3.0 mi Calm Calm - N/A   Clear
4:55 AM 59.7 °F - 59.7 °F 100% 30.02 in 9.0 mi Calm Calm - N/A   Clear
5:00 AM 59.0 °F - 59.0 °F 100% 30.02 in 4.0 mi Calm Calm - N/A   Clear
5:03 AM 59.0 °F - 59.0 °F 100% 30.02 in 2.5 mi Calm Calm - N/A   Clear
5:06 AM 59.0 °F - 59.0 °F 100% 30.02 in 1.5 mi Calm Calm - N/A   Clear
5:07 AM 59.0 °F - 59.0 °F 100% 30.02 in 1.2 mi Calm Calm - N/A   Clear
5:08 AM 59.0 °F - 59.0 °F 100% 30.02 in 1.0 mi Calm Calm - N/A   Clear
5:11 AM 59.0 °F - 59.0 °F 100% 30.02 in 0.8 mi Calm Calm - N/A   Clear
5:15 AM 59.0 °F - 59.0 °F 100% 30.02 in 0.8 mi Calm Calm - N/A   Clear
5:24 AM 59.0 °F - 59.0 °F 100% 30.02 in 0.5 mi Calm Calm - N/A Fog Fog
5:55 AM 57.4 °F - 57.4 °F 100% 30.02 in 0.5 mi Calm Calm - N/A Fog Fog
5:56 AM 57.2 °F - 57.2 °F 100% 30.02 in 0.5 mi Calm Calm - N/A Fog Fog
5:57 AM 57.2 °F - 57.2 °F 100% 30.02 in 0.8 mi Calm Calm - N/A   Clear
5:59 AM 57.2 °F - 57.2 °F 100% 30.02 in 1.0 mi Calm Calm - N/A   Clear
6:00 AM 57.2 °F - 57.2 °F 100% 30.02 in 1.2 mi Calm Calm - N/A   Clear
6:01 AM 57.2 °F - 57.2 °F 100% 30.02 in 1.5 mi Calm Calm - N/A   Clear
6:02 AM 57.2 °F - 57.2 °F 100% 30.02 in 1.8 mi Calm Calm - N/A   Clear
6:03 AM 57.2 °F - 57.2 °F 100% 30.02 in 2.0 mi Calm Calm - N/A   Clear
6:04 AM 57.2 °F - 57.2 °F 100% 30.02 in 3.0 mi Calm Calm - N/A   Clear
6:17 AM 55.4 °F - 55.4 °F 100% 30.02 in 6.0 mi Calm Calm - N/A   Clear
6:19 AM 57.2 °F - 57.2 °F 100% 30.03 in 6.0 mi Calm Calm - N/A   Clear
6:28 AM 57.2 °F - 57.2 °F 100% 30.03 in 2.5 mi Calm Calm - N/A   Clear
6:36 AM 57.2 °F - 57.2 °F 100% 30.03 in 3.0 mi Calm Calm - N/A   Clear
6:55 AM 56.3 °F - 56.3 °F 100% 30.04 in 6.0 mi Calm Calm - N/A   Clear
7:06 AM 57.2 °F - 57.2 °F 100% 30.04 in 4.0 mi Calm Calm - N/A   Clear
7:14 AM 57.2 °F - 57.2 °F 100% 30.04 in 2.5 mi Calm Calm - N/A   Clear
7:15 AM 57.2 °F - 57.2 °F 100% 30.04 in 2.5 mi Calm Calm - N/A   Partly Cloudy
7:17 AM 57.2 °F - 57.2 °F 100% 30.04 in 1.8 mi Calm Calm - N/A   Partly Cloudy
7:21 AM 57.2 °F - 57.2 °F 100% 30.04 in 2.0 mi Calm Calm - N/A   Partly Cloudy
7:28 AM 57.2 °F - 57.2 °F 100% 30.04 in 1.8 mi Calm Calm - N/A   Partly Cloudy
7:29 AM 57.2 °F - 57.2 °F 100% 30.04 in 1.2 mi Calm Calm - N/A   Partly Cloudy
7:31 AM 57.2 °F - 57.2 °F 100% 30.04 in 1.0 mi Calm Calm - N/A   Mist
7:35 AM 57.2 °F - 57.2 °F 100% 30.04 in 0.8 mi Calm Calm - N/A   Mist
7:38 AM 57.2 °F - 57.2 °F 100% 30.04 in 0.5 mi Calm Calm - N/A Fog Fog
7:42 AM 57.2 °F - 57.2 °F 100% 30.04 in 0.2 mi Calm Calm - N/A Fog Fog
7:44 AM 57.2 °F - 57.2 °F 100% 30.05 in 0.2 mi Calm Calm - N/A Fog Fog
7:55 AM 56.7 °F - 56.7 °F 100% 30.05 in 0.2 mi Calm Calm - N/A Fog Fog
7:56 AM 57.2 °F - 57.2 °F 100% 30.05 in 0.2 mi Calm Calm - N/A Fog Fog
8:03 AM 57.2 °F - 57.2 °F 100% 30.05 in 0.8 mi Calm Calm - N/A   Clear
8:06 AM 57.2 °F - 57.2 °F 100% 30.05 in 0.8 mi Calm Calm - N/A   Clear
8:10 AM 57.2 °F - 57.2 °F 100% 30.06 in 1.0 mi Calm Calm - N/A   Clear
8:11 AM 57.2 °F - 57.2 °F 100% 30.06 in 1.0 mi Calm Calm - N/A   Mist
8:14 AM 59.0 °F - 59.0 °F 100% 30.06 in 1.2 mi Calm Calm - N/A   Partly Cloudy
8:16 AM 59.0 °F - 59.0 °F 100% 30.06 in 1.5 mi Calm Calm - N/A   Partly Cloudy
8:18 AM 59.0 °F - 59.0 °F 100% 30.06 in 2.0 mi Calm Calm - N/A   Partly Cloudy
8:20 AM 59.0 °F - 59.0 °F 100% 30.06 in 3.0 mi Calm Calm - N/A   Clear
8:55 AM 61.7 °F - 61.7 °F 100% 30.07 in 10.0 mi Calm Calm - N/A   Clear
9:55 AM 68.9 °F - 62.4 °F 80% 30.08 in 10.0 mi SSW 4.6 mph - N/A   Clear
10:55 AM 74.5 °F - 60.4 °F 61% 30.06 in 10.0 mi Calm Calm - N/A   Clear
11:55 AM 77.0 °F - 60.6 °F 57% 30.03 in 10.0 mi Calm Calm - N/A   Clear
12:55 PM 78.8 °F - 60.1 °F 53% 30.00 in 10.0 mi Calm Calm - N/A   Clear
1:55 PM 80.6 °F 81.2 °F 59.5 °F 49% 29.98 in 10.0 mi Calm Calm - N/A   Clear
2:55 PM 81.5 °F 81.8 °F 59.2 °F 47% 29.96 in 10.0 mi WSW 11.5 mph 17.3 mph N/A   Clear
3:55 PM 81.7 °F 81.9 °F 59.2 °F 46% 29.96 in 10.0 mi SSW 9.2 mph - N/A   Clear
4:55 PM 79.2 °F - 60.1 °F 52% 29.96 in 10.0 mi SSW 8.1 mph - N/A   Scattered Clouds
5:55 PM 75.6 °F - 60.8 °F 60% 29.97 in 10.0 mi South 4.6 mph - N/A   Clear
6:55 PM 70.7 °F - 61.3 °F 72% 29.99 in 10.0 mi SE 4.6 mph - N/A   Clear
7:55 PM 68.4 °F - 62.1 °F 80% 30.00 in 10.0 mi SE 4.6 mph - N/A   Clear
8:55 PM 66.2 °F - 61.9 °F 86% 30.01 in 10.0 mi SSE 4.6 mph - N/A   Mostly Cloudy
9:55 PM 65.3 °F - 61.5 °F 88% 30.00 in 10.0 mi South 4.6 mph - N/A   Clear
10:55 PM 64.0 °F - 61.2 °F 90% 30.00 in 10.0 mi South 3.5 mph - N/A   Clear
11:55 PM 63.0 °F - 60.3 °F 91% 30.00 in 10.0 mi Calm Calm - N/A   Clear